Location: Hylvaty SDH
(49.9612°N, 16.4057°E)
Time: 00:44:34
(UTC+01:00)

A-11 Canister half - Visible Passes

Search period start: 26 January 2020 00:00
Search period end: 05 February 2020 00:00
Orbit: 1525 x 1684 km, 47.3° (Epoch: 25 January)

Date Brightness Start Highest point End Pass type
(mag) Time Alt. Az. Time Alt. Az. Time Alt. Az.
26 Jan 9.6 16:57:14 10° SSW 17:05:49 43° SE 17:14:35 10° ENE visible
26 Jan 9.0 19:00:41 10° WSW 19:10:01 73° SSE 19:13:55 41° E visible
26 Jan 9.5 21:05:22 10° W 21:12:13 52° WSW 21:12:13 52° WSW visible
26 Jan 11.2 23:10:17 10° WNW 23:10:31 11° W 23:10:31 11° W visible
27 Jan 9.0 18:39:05 10° WSW 18:48:24 72° SSE 18:53:31 32° E visible
27 Jan 9.1 20:43:46 10° W 20:51:49 65° WSW 20:51:49 65° WSW visible
27 Jan 10.9 22:48:38 10° WNW 22:50:07 15° W 22:50:07 15° W visible
28 Jan 9.1 18:17:30 10° WSW 18:26:47 71° SSE 18:33:08 24° E visible
28 Jan 8.9 20:22:08 10° W 20:31:25 73° SSW 20:31:25 73° SSW visible
28 Jan 10.7 22:27:00 10° WNW 22:29:43 21° W 22:29:43 21° W visible
29 Jan 9.1 17:55:54 10° WSW 18:05:09 70° SSE 18:12:44 18° E visible
29 Jan 8.9 20:00:31 10° W 20:09:55 74° S 20:11:02 68° SE visible
29 Jan 10.4 22:05:22 10° WNW 22:09:20 27° W 22:09:20 27° W visible
30 Jan 9.2 17:34:18 10° WSW 17:43:32 69° SSE 17:52:21 13° E visible
30 Jan 9.0 19:38:54 10° W 19:48:17 75° S 19:50:39 55° ESE visible
30 Jan 10.1 21:43:44 10° WNW 21:48:58 34° W 21:48:58 34° W visible
31 Jan 9.2 17:12:43 10° WSW 17:21:55 68° SSE 17:31:22 10° E visible
31 Jan 9.0 19:17:17 10° W 19:26:39 75° S 19:30:17 44° ESE visible
31 Jan 9.8 21:22:06 10° W 21:28:36 41° WSW 21:28:36 41° WSW visible
01 Feb 9.0 18:55:40 10° W 19:05:01 76° S 19:09:57 34° ESE visible
01 Feb 9.5 21:00:28 10° W 21:08:15 48° SW 21:08:15 48° SW visible
01 Feb 11.2 23:06:31 10° W 23:06:33 10° W 23:06:33 10° W visible
02 Feb 9.0 18:34:02 10° W 18:43:23 76° S 18:49:38 25° ESE visible
02 Feb 9.3 20:38:51 10° W 20:47:53 52° SSW 20:47:56 52° SSW visible
02 Feb 11.0 22:44:44 10° W 22:46:14 14° W 22:46:14 14° W visible
03 Feb 9.1 18:12:26 10° W 18:21:46 77° S 18:29:21 18° ESE visible
03 Feb 9.3 20:17:13 10° W 20:26:16 53° SSW 20:27:40 50° S visible
03 Feb 10.8 22:22:59 10° W 22:25:58 17° WSW 22:25:58 17° WSW visible
04 Feb 9.1 17:50:49 10° W 18:00:08 77° S 18:09:06 12° E visible
04 Feb 9.3 19:55:36 10° W 20:04:40 55° SSW 20:07:25 43° SSE visible
04 Feb 10.6 22:01:15 10° W 22:05:45 21° WSW 22:05:45 21° WSW visible
